owner,sensor,date,latitude,longitude,vertical_datum,wind_speed,wind_to_direction,wind_speed_of_gust,qcFlag 
COMPS,ioos:station:USF.COMPS:NFB:1,2014-10-01T00:00:00Z,25.0840,-81.0960,6.0,4.25,288.08,5.19,'1111122,1111122,1111122' 
COMPS,ioos:station:USF.COMPS:NFB:1,2014-10-01T00:06:00Z,25.0840,-81.0960,6.0,4.29,295.65,5.58,'1111122,1111122,1111122' 
COMPS,ioos:station:USF.COMPS:NFB:1,2014-10-01T00:12:00Z,25.0840,-81.0960,6.0,4.07,301.07,4.9,'1111122,1111122,1111122' 
COMPS,ioos:station:USF.COMPS:NFB:1,2014-10-01T00:18:00Z,25.0840,-81.0960,6.0,3.85,294.49,4.6,'1111122,1111122,1111122' 
COMPS,ioos:station:USF.COMPS:NFB:1,2014-10-01T00:24:00Z,25.0840,-81.0960,6.0,4.2,295.9,4.7,'1111122,1111122,1111122' 
COMPS,ioos:station:USF.COMPS:NFB:1,2014-10-01T00:30:00Z,25.0840,-81.0960,6.0,4.17,300.38,4.99,'1111122,1111122,1111122' 
COMPS,ioos:station:USF.COMPS:NFB:1,2014-10-01T00:36:00Z,25.0840,-81.0960,6.0,4.5,295.92,5.29,'1111122,1111122,1111122' 
COMPS,ioos:station:USF.COMPS:NFB:1,2014-10-01T00:42:00Z,25.0840,-81.0960,6.0,4.14,301.33,5.09,'1111122,1111122,1111122' 
COMPS,ioos:station:USF.COMPS:NFB:1,2014-10-01T00:48:00Z,25.0840,-81.0960,6.0,4.41,302.88,5.48,'1111122,1111122,1111122' 
COMPS,ioos:station:USF.COMPS:NFB:1,2014-10-01T00:54:00Z,25.0840,-81.0960,6.0,4.53,301.53,5.78,'1111122,1111122,1111122' 
COMPS,ioos:station:USF.COMPS:NFB:1,2014-10-01T01:00:00Z,25.0840,-81.0960,6.0,4.45,308.67,5.58,'1111122,1111122,1111122' 
COMPS,ioos:station:USF.COMPS:NFB:1,2014-10-01T01:06:00Z,25.0840,-81.0960,6.0,4.77,312.47,5.58,'1111122,1111122,1111122' 
COMPS,ioos:station:USF.COMPS:NFB:1,2014-10-01T01:12:00Z,25.0840,-81.0960,6.0,3.84,307.32,4.6,'1111122,1111122,1111122' 
COMPS,ioos:station:USF.COMPS:NFB:1,2014-10-01T01:18:00Z,25.0840,-81.0960,6.0,3.86,305.35,4.5,'1111122,1111122,1111122' 
COMPS,ioos:station:USF.COMPS:NFB:1,2014-10-01T01:24:00Z,25.0840,-81.0960,6.0,3.91,304.26,4.5,'1111122,1111122,1111122' 
COMPS,ioos:station:USF.COMPS:NFB:1,2014-10-01T01:30:00Z,25.0840,-81.0960,6.0,3.56,298.91,4.8,'1111122,1111122,1111122' 
COMPS,ioos:station:USF.COMPS:NFB:1,2014-10-01T01:36:00Z,25.0840,-81.0960,6.0,3.65,313.25,4.8,'1111122,1111122,1111122' 
COMPS,ioos:station:USF.COMPS:NFB:1,2014-10-01T01:42:00Z,25.0840,-81.0960,6.0,3.83,303.64,4.8,'1111122,1111122,1111122' 
COMPS,ioos:station:USF.COMPS:NFB:1,2014-10-01T01:48:00Z,25.0840,-81.0960,6.0,3.78,307.98,4.7,'1111122,1111122,1111122' 
COMPS,ioos:station:USF.COMPS:NFB:1,2014-10-01T01:54:00Z,25.0840,-81.0960,6.0,3.71,317.75,4.7,'1111122,1111122,1111122' 
COMPS,ioos:station:USF.COMPS:NFB:1,2014-10-01T02:00:00Z,25.0840,-81.0960,6.0,3.85,314.14,4.9,'1111122,1111122,1111122' 
COMPS,ioos:station:USF.COMPS:NFB:1,2014-10-01T02:06:00Z,25.0840,-81.0960,6.0,3.61,303.45,4.31,'1111122,1111122,1111122' 
COMPS,ioos:station:USF.COMPS:NFB:1,2014-10-01T02:12:00Z,25.0840,-81.0960,6.0,2.98,288.59,4.5,'1111122,1111122,1111122' 
COMPS,ioos:station:USF.COMPS:NFB:1,2014-10-01T02:18:00Z,25.0840,-81.0960,6.0,3.84,305.44,4.7,'1111122,1111122,1111122' 
COMPS,ioos:station:USF.COMPS:NFB:1,2014-10-01T02:24:00Z,25.0840,-81.0960,6.0,3.62,309.22,4.6,'1111122,1111122,1111122' 
COMPS,ioos:station:USF.COMPS:NFB:1,2014-10-01T02:30:00Z,25.0840,-81.0960,6.0,2.98,319.73,3.52,'1111122,1111122,1111122' 
COMPS,ioos:station:USF.COMPS:NFB:1,2014-10-01T02:36:00Z,25.0840,-81.0960,6.0,2.98,319.74,3.52,'1111122,1111122,1111122' 
COMPS,ioos:station:USF.COMPS:NFB:1,2014-10-01T02:42:00Z,25.0840,-81.0960,6.0,2.68,299.55,3.52,'1111122,1111122,1111122' 
COMPS,ioos:station:USF.COMPS:NFB:1,2014-10-01T02:48:00Z,25.0840,-81.0960,6.0,2.62,287.9,3.52,'1111122,1111122,1111122' 
COMPS,ioos:station:USF.COMPS:NFB:1,2014-10-01T02:54:00Z,25.0840,-81.0960,6.0,2.68,297.43,3.52,'1111122,1111122,1111122' 
COMPS,ioos:station:USF.COMPS:NFB:1,2014-10-01T03:00:00Z,25.0840,-81.0960,6.0,2.64,287.55,3.13,'1111122,1111122,1111122' 
COMPS,ioos:station:USF.COMPS:NFB:1,2014-10-01T03:06:00Z,25.0840,-81.0960,6.0,3.04,283.8,3.62,'1111122,1111122,1111122' 
COMPS,ioos:station:USF.COMPS:NFB:1,2014-10-01T03:12:00Z,25.0840,-81.0960,6.0,3.16,289.98,3.62,'1111122,1111122,1111122' 
COMPS,ioos:station:USF.COMPS:NFB:1,2014-10-01T03:18:00Z,25.0840,-81.0960,6.0,3.15,281.93,3.62,'1111122,1111122,1111122' 
COMPS,ioos:station:USF.COMPS:NFB:1,2014-10-01T03:24:00Z,25.0840,-81.0960,6.0,2.88,284.27,3.42,'1111122,1111122,1111122' 
COMPS,ioos:station:USF.COMPS:NFB:1,2014-10-01T03:30:00Z,25.0840,-81.0960,6.0,2.59,276.65,3.42,'1111122,1111122,1111122' 
COMPS,ioos:station:USF.COMPS:NFB:1,2014-10-01T03:36:00Z,25.0840,-81.0960,6.0,2.53,279.84,2.93,'1111122,1111122,1111122' 
COMPS,ioos:station:USF.COMPS:NFB:1,2014-10-01T03:42:00Z,25.0840,-81.0960,6.0,2.19,278.25,3.42,'1111122,1111122,1111122' 
COMPS,ioos:station:USF.COMPS:NFB:1,2014-10-01T03:48:00Z,25.0840,-81.0960,6.0,2.61,288.2,3.03,'1111122,1111122,1111122' 
COMPS,ioos:station:USF.COMPS:NFB:1,2014-10-01T03:54:00Z,25.0840,-81.0960,6.0,2.66,280.88,3.42,'1111122,1111122,1111122' 
COMPS,ioos:station:USF.COMPS:NFB:1,2014-10-01T04:00:00Z,25.0840,-81.0960,6.0,2.79,278.86,3.33,'1111122,1111122,1111122' 
COMPS,ioos:station:USF.COMPS:NFB:1,2014-10-01T04:06:00Z,25.0840,-81.0960,6.0,2.7,263.71,3.13,'1111122,1111122,1111122' 
COMPS,ioos:station:USF.COMPS:NFB:1,2014-10-01T04:12:00Z,25.0840,-81.0960,6.0,2.86,270.72,3.42,'1111122,1111122,1111122' 
COMPS,ioos:station:USF.COMPS:NFB:1,2014-10-01T04:18:00Z,25.0840,-81.0960,6.0,2.74,267.25,3.52,'1111122,1111122,1111122' 
COMPS,ioos:station:USF.COMPS:NFB:1,2014-10-01T04:24:00Z,25.0840,-81.0960,6.0,2.22,273.13,2.93,'1111122,1111122,1111122' 
COMPS,ioos:station:USF.COMPS:NFB:1,2014-10-01T04:30:00Z,25.0840,-81.0960,6.0,2.17,257.58,2.54,'1111122,1111122,1111122' 
COMPS,ioos:station:USF.COMPS:NFB:1,2014-10-01T04:36:00Z,25.0840,-81.0960,6.0,2.61,247.94,3.23,'1111122,1111122,1111122' 
COMPS,ioos:station:USF.COMPS:NFB:1,2014-10-01T04:42:00Z,25.0840,-81.0960,6.0,2.51,247.41,3.33,'1111122,1111122,1111122' 
COMPS,ioos:station:USF.COMPS:NFB:1,2014-10-01T04:48:00Z,25.0840,-81.0960,6.0,2.51,259.17,3.03,'1111122,1111122,1111122' 
COMPS,ioos:station:USF.COMPS:NFB:1,2014-10-01T04:54:00Z,25.0840,-81.0960,6.0,2.55,252.99,3.13,'1111122,1111122,1111122' 
COMPS,ioos:station:USF.COMPS:NFB:1,2014-10-01T05:00:00Z,25.0840,-81.0960,6.0,2.75,258.59,3.42,'1111122,1111122,1111122' 
COMPS,ioos:station:USF.COMPS:NFB:1,2014-10-01T05:06:00Z,25.0840,-81.0960,6.0,2.54,251.58,3.03,'1111122,1111122,1111122' 
COMPS,ioos:station:USF.COMPS:NFB:1,2014-10-01T05:12:00Z,25.0840,-81.0960,6.0,2.76,250.64,3.33,'1111122,1111122,1111122' 
COMPS,ioos:station:USF.COMPS:NFB:1,2014-10-01T05:18:00Z,25.0840,-81.0960,6.0,2.62,246.26,3.23,'1111122,1111122,1111122' 
COMPS,ioos:station:USF.COMPS:NFB:1,2014-10-01T05:24:00Z,25.0840,-81.0960,6.0,2.77,241.03,3.42,'1111122,1111122,1111122' 
COMPS,ioos:station:USF.COMPS:NFB:1,2014-10-01T05:30:00Z,25.0840,-81.0960,6.0,2.82,246.3,3.42,'1111122,1111122,1111122' 
COMPS,ioos:station:USF.COMPS:NFB:1,2014-10-01T05:36:00Z,25.0840,-81.0960,6.0,2.83,248.68,3.33,'1111122,1111122,1111122' 
COMPS,ioos:station:USF.COMPS:NFB:1,2014-10-01T05:42:00Z,25.0840,-81.0960,6.0,2.56,270.74,3.33,'1111122,1111122,1111122' 
COMPS,ioos:station:USF.COMPS:NFB:1,2014-10-01T05:48:00Z,25.0840,-81.0960,6.0,2.81,253.42,3.62,'1111122,1111122,1111122' 
COMPS,ioos:station:USF.COMPS:NFB:1,2014-10-01T05:54:00Z,25.0840,-81.0960,6.0,2.8,237.62,3.42,'1111122,1111122,1111122' 
COMPS,ioos:station:USF.COMPS:NFB:1,2014-10-01T06:00:00Z,25.0840,-81.0960,6.0,2.82,246.55,3.42,'1111122,1111122,1111122' 
COMPS,ioos:station:USF.COMPS:NFB:1,2014-10-01T06:06:00Z,25.0840,-81.0960,6.0,2.84,250.36,3.72,'1111122,1111122,1111122' 
COMPS,ioos:station:USF.COMPS:NFB:1,2014-10-01T06:12:00Z,25.0840,-81.0960,6.0,3.1,244.22,3.62,'1111122,1111122,1111122' 
COMPS,ioos:station:USF.COMPS:NFB:1,2014-10-01T06:18:00Z,25.0840,-81.0960,6.0,3.19,254.84,3.72,'1111122,1111122,1111122' 
COMPS,ioos:station:USF.COMPS:NFB:1,2014-10-01T06:24:00Z,25.0840,-81.0960,6.0,2.91,247.25,3.82,'1111122,1111122,1111122' 
COMPS,ioos:station:USF.COMPS:NFB:1,2014-10-01T06:30:00Z,25.0840,-81.0960,6.0,2.56,245.79,3.42,'1111122,1111122,1111122' 
COMPS,ioos:station:USF.COMPS:NFB:1,2014-10-01T06:36:00Z,25.0840,-81.0960,6.0,3.13,242.59,3.82,'1111122,1111122,1111122' 
COMPS,ioos:station:USF.COMPS:NFB:1,2014-10-01T06:42:00Z,25.0840,-81.0960,6.0,3.02,230.32,3.62,'1111122,1111122,1111122' 
COMPS,ioos:station:USF.COMPS:NFB:1,2014-10-01T06:48:00Z,25.0840,-81.0960,6.0,3.06,232.7,3.62,'1111122,1111122,1111122' 
COMPS,ioos:station:USF.COMPS:NFB:1,2014-10-01T06:54:00Z,25.0840,-81.0960,6.0,2.92,232.81,3.72,'1111122,1111122,1111122' 
COMPS,ioos:station:USF.COMPS:NFB:1,2014-10-01T07:00:00Z,25.0840,-81.0960,6.0,2.96,230.97,3.82,'1111122,1111122,1111122' 
COMPS,ioos:station:USF.COMPS:NFB:1,2014-10-01T07:06:00Z,25.0840,-81.0960,6.0,3.28,241.4,3.82,'1111122,1111122,1111122' 
COMPS,ioos:station:USF.COMPS:NFB:1,2014-10-01T07:12:00Z,25.0840,-81.0960,6.0,3.05,235.83,3.72,'1111122,1111122,1111122' 
COMPS,ioos:station:USF.COMPS:NFB:1,2014-10-01T07:18:00Z,25.0840,-81.0960,6.0,3.11,234.8,3.62,'1111122,1111122,1111122' 
COMPS,ioos:station:USF.COMPS:NFB:1,2014-10-01T07:24:00Z,25.0840,-81.0960,6.0,3.08,229.31,3.91,'1111122,1111122,1111122' 
COMPS,ioos:station:USF.COMPS:NFB:1,2014-10-01T07:30:00Z,25.0840,-81.0960,6.0,2.96,225.07,3.62,'1111122,1111122,1111122' 
COMPS,ioos:station:USF.COMPS:NFB:1,2014-10-01T07:36:00Z,25.0840,-81.0960,6.0,3.34,224.67,3.82,'1111122,1111122,1111122' 
COMPS,ioos:station:USF.COMPS:NFB:1,2014-10-01T07:42:00Z,25.0840,-81.0960,6.0,3.29,227.49,4.01,'1111122,1111122,1111122' 
COMPS,ioos:station:USF.COMPS:NFB:1,2014-10-01T07:48:00Z,25.0840,-81.0960,6.0,3.21,221.14,4.01,'1111122,1111122,1111122' 
COMPS,ioos:station:USF.COMPS:NFB:1,2014-10-01T07:54:00Z,25.0840,-81.0960,6.0,3.51,221.14,4.21,'1111122,1111122,1111122' 
COMPS,ioos:station:USF.COMPS:NFB:1,2014-10-01T08:00:00Z,25.0840,-81.0960,6.0,3.43,218.93,4.31,'1111122,1111122,1111122' 
COMPS,ioos:station:USF.COMPS:NFB:1,2014-10-01T08:06:00Z,25.0840,-81.0960,6.0,3.37,215.9,4.21,'1111122,1111122,1111122' 
COMPS,ioos:station:USF.COMPS:NFB:1,2014-10-01T08:12:00Z,25.0840,-81.0960,6.0,3.57,228.97,4.11,'1111122,1111122,1111122' 
COMPS,ioos:station:USF.COMPS:NFB:1,2014-10-01T08:18:00Z,25.0840,-81.0960,6.0,3.8,229.36,4.5,'1111122,1111122,1111122' 
COMPS,ioos:station:USF.COMPS:NFB:1,2014-10-01T08:24:00Z,25.0840,-81.0960,6.0,3.67,228.99,4.41,'1111122,1111122,1111122' 
COMPS,ioos:station:USF.COMPS:NFB:1,2014-10-01T08:30:00Z,25.0840,-81.0960,6.0,3.6,228.45,4.99,'1111122,1111122,1111122' 
COMPS,ioos:station:USF.COMPS:NFB:1,2014-10-01T08:36:00Z,25.0840,-81.0960,6.0,3.69,217.31,4.5,'1111122,1111122,1111122' 
COMPS,ioos:station:USF.COMPS:NFB:1,2014-10-01T08:42:00Z,25.0840,-81.0960,6.0,4.0,210.02,4.8,'1111122,1111122,1111122' 
COMPS,ioos:station:USF.COMPS:NFB:1,2014-10-01T08:48:00Z,25.0840,-81.0960,6.0,4.34,219.82,5.48,'1111122,1111122,1111122' 
COMPS,ioos:station:USF.COMPS:NFB:1,2014-10-01T08:54:00Z,25.0840,-81.0960,6.0,4.27,224.25,5.19,'1111122,1111122,1111122' 
COMPS,ioos:station:USF.COMPS:NFB:1,2014-10-01T09:00:00Z,25.0840,-81.0960,6.0,4.44,223.78,5.48,'1111122,1111122,1111122' 
COMPS,ioos:station:USF.COMPS:NFB:1,2014-10-01T09:06:00Z,25.0840,-81.0960,6.0,4.6,216.36,5.48,'1111122,1111122,1111122' 
COMPS,ioos:station:USF.COMPS:NFB:1,2014-10-01T09:12:00Z,25.0840,-81.0960,6.0,4.48,218.19,5.29,'1111122,1111122,1111122' 
COMPS,ioos:station:USF.COMPS:NFB:1,2014-10-01T09:18:00Z,25.0840,-81.0960,6.0,3.86,224.05,4.8,'1111122,1111122,1111122' 
COMPS,ioos:station:USF.COMPS:NFB:1,2014-10-01T09:24:00Z,25.0840,-81.0960,6.0,3.71,223.42,4.31,'1111122,1111122,1111122' 
COMPS,ioos:station:USF.COMPS:NFB:1,2014-10-01T09:30:00Z,25.0840,-81.0960,6.0,4.24,229.32,4.8,'1111122,1111122,1111122' 
COMPS,ioos:station:USF.COMPS:NFB:1,2014-10-01T09:36:00Z,25.0840,-81.0960,6.0,4.03,231.94,4.8,'1111122,1111122,1111122' 
COMPS,ioos:station:USF.COMPS:NFB:1,2014-10-01T09:42:00Z,25.0840,-81.0960,6.0,4.16,229.64,5.19,'1111122,1111122,1111122' 
COMPS,ioos:station:USF.COMPS:NFB:1,2014-10-01T09:48:00Z,25.0840,-81.0960,6.0,4.43,229.45,4.99,'1111122,1111122,1111122' 
COMPS,ioos:station:USF.COMPS:NFB:1,2014-10-01T09:54:00Z,25.0840,-81.0960,6.0,4.29,227.36,4.99,'1111122,1111122,1111122' 
COMPS,ioos:station:USF.COMPS:NFB:1,2014-10-01T10:00:00Z,25.0840,-81.0960,6.0,4.32,231.36,5.29,'1111122,1111122,1111122' 
COMPS,ioos:station:USF.COMPS:NFB:1,2014-10-01T10:06:00Z,25.0840,-81.0960,6.0,4.57,227.7,5.58,'1111122,1111122,1111122' 
COMPS,ioos:station:USF.COMPS:NFB:1,2014-10-01T10:12:00Z,25.0840,-81.0960,6.0,4.46,237.92,5.29,'1111122,1111122,1111122' 
COMPS,ioos:station:USF.COMPS:NFB:1,2014-10-01T10:18:00Z,25.0840,-81.0960,6.0,4.53,237.54,5.39,'1111122,1111122,1111122' 
COMPS,ioos:station:USF.COMPS:NFB:1,2014-10-01T10:24:00Z,25.0840,-81.0960,6.0,4.55,232.22,5.78,'1111122,1111122,1111122' 
COMPS,ioos:station:USF.COMPS:NFB:1,2014-10-01T10:30:00Z,25.0840,-81.0960,6.0,4.79,231.24,5.58,'1111122,1111122,1111122' 
COMPS,ioos:station:USF.COMPS:NFB:1,2014-10-01T10:36:00Z,25.0840,-81.0960,6.0,5.06,231.42,5.87,'1111122,1111122,1111122' 
COMPS,ioos:station:USF.COMPS:NFB:1,2014-10-01T10:42:00Z,25.0840,-81.0960,6.0,4.89,235.02,5.68,'1111122,1111122,1111122' 
COMPS,ioos:station:USF.COMPS:NFB:1,2014-10-01T10:48:00Z,25.0840,-81.0960,6.0,4.9,234.6,5.87,'1111122,1111122,1111122' 
COMPS,ioos:station:USF.COMPS:NFB:1,2014-10-01T10:54:00Z,25.0840,-81.0960,6.0,4.47,234.42,4.99,'1111122,1111122,1111122' 
COMPS,ioos:station:USF.COMPS:NFB:1,2014-10-01T11:00:00Z,25.0840,-81.0960,6.0,4.16,242.91,4.9,'1111122,1111122,1111122' 
COMPS,ioos:station:USF.COMPS:NFB:1,2014-10-01T11:06:00Z,25.0840,-81.0960,6.0,4.26,239.38,5.09,'1111122,1111122,1111122' 
COMPS,ioos:station:USF.COMPS:NFB:1,2014-10-01T11:12:00Z,25.0840,-81.0960,6.0,4.66,243.5,5.48,'1111122,1111122,1111122' 
COMPS,ioos:station:USF.COMPS:NFB:1,2014-10-01T11:18:00Z,25.0840,-81.0960,6.0,4.55,241.76,5.29,'1111122,1111122,1111122' 
COMPS,ioos:station:USF.COMPS:NFB:1,2014-10-01T11:24:00Z,25.0840,-81.0960,6.0,4.0,260.2,5.19,'1111122,1111122,1111122' 
COMPS,ioos:station:USF.COMPS:NFB:1,2014-10-01T11:30:00Z,25.0840,-81.0960,6.0,4.55,241.0,5.48,'1111122,1111122,1111122' 
COMPS,ioos:station:USF.COMPS:NFB:1,2014-10-01T11:36:00Z,25.0840,-81.0960,6.0,4.67,239.19,5.78,'1111122,1111122,1111122' 
COMPS,ioos:station:USF.COMPS:NFB:1,2014-10-01T11:42:00Z,25.0840,-81.0960,6.0,4.67,243.49,5.48,'1111122,1111122,1111122' 
COMPS,ioos:station:USF.COMPS:NFB:1,2014-10-01T11:48:00Z,25.0840,-81.0960,6.0,4.71,232.67,5.48,'1111122,1111122,1111122' 
COMPS,ioos:station:USF.COMPS:NFB:1,2014-10-01T11:54:00Z,25.0840,-81.0960,6.0,4.66,242.6,5.87,'1111122,1111122,1111122' 
COMPS,ioos:station:USF.COMPS:NFB:1,2014-10-01T12:00:00Z,25.0840,-81.0960,6.0,4.42,244.64,5.29,'1111122,1111122,1111122' 
COMPS,ioos:station:USF.COMPS:NFB:1,2014-10-01T12:06:00Z,25.0840,-81.0960,6.0,3.98,248.07,4.8,'1111122,1111122,1111122' 
COMPS,ioos:station:USF.COMPS:NFB:1,2014-10-01T12:12:00Z,25.0840,-81.0960,6.0,3.94,246.02,4.7,'1111122,1111122,1111122' 
COMPS,ioos:station:USF.COMPS:NFB:1,2014-10-01T12:18:00Z,25.0840,-81.0960,6.0,4.03,235.98,4.6,'1111122,1111122,1111122' 
COMPS,ioos:station:USF.COMPS:NFB:1,2014-10-01T12:24:00Z,25.0840,-81.0960,6.0,4.32,235.39,4.9,'1111122,1111122,1111122' 
COMPS,ioos:station:USF.COMPS:NFB:1,2014-10-01T12:30:00Z,25.0840,-81.0960,6.0,4.42,235.18,5.19,'1111122,1111122,1111122' 
COMPS,ioos:station:USF.COMPS:NFB:1,2014-10-01T12:36:00Z,25.0840,-81.0960,6.0,4.33,237.73,4.8,'1111122,1111122,1111122' 
COMPS,ioos:station:USF.COMPS:NFB:1,2014-10-01T12:42:00Z,25.0840,-81.0960,6.0,4.75,239.2,5.87,'1111122,1111122,1111122' 
COMPS,ioos:station:USF.COMPS:NFB:1,2014-10-01T12:48:00Z,25.0840,-81.0960,6.0,4.73,233.88,5.48,'1111122,1111122,1111122' 
COMPS,ioos:station:USF.COMPS:NFB:1,2014-10-01T12:54:00Z,25.0840,-81.0960,6.0,4.7,230.38,5.48,'1111122,1111122,1111122' 
COMPS,ioos:station:USF.COMPS:NFB:1,2014-10-01T13:00:00Z,25.0840,-81.0960,6.0,4.81,236.17,5.58,'1111122,1111122,1111122' 
COMPS,ioos:station:USF.COMPS:NFB:1,2014-10-01T13:06:00Z,25.0840,-81.0960,6.0,5.04,237.87,5.68,'1111122,1111122,1111122' 
COMPS,ioos:station:USF.COMPS:NFB:1,2014-10-01T13:12:00Z,25.0840,-81.0960,6.0,4.38,239.08,5.48,'1111122,1111122,1111122' 
COMPS,ioos:station:USF.COMPS:NFB:1,2014-10-01T13:18:00Z,25.0840,-81.0960,6.0,4.56,237.82,5.19,'1111122,1111122,1111122' 
COMPS,ioos:station:USF.COMPS:NFB:1,2014-10-01T13:24:00Z,25.0840,-81.0960,6.0,4.4,239.45,5.58,'1111122,1111122,1111122' 
COMPS,ioos:station:USF.COMPS:NFB:1,2014-10-01T13:30:00Z,25.0840,-81.0960,6.0,3.65,263.58,4.21,'1111122,1111122,1111122' 
COMPS,ioos:station:USF.COMPS:NFB:1,2014-10-01T13:36:00Z,25.0840,-81.0960,6.0,3.53,262.29,4.21,'1111122,1111122,1111122' 
COMPS,ioos:station:USF.COMPS:NFB:1,2014-10-01T13:42:00Z,25.0840,-81.0960,6.0,3.49,262.73,4.31,'1111122,1111122,1111122' 
COMPS,ioos:station:USF.COMPS:NFB:1,2014-10-01T13:48:00Z,25.0840,-81.0960,6.0,3.77,254.97,4.7,'1111122,1111122,1111122' 
COMPS,ioos:station:USF.COMPS:NFB:1,2014-10-01T13:54:00Z,25.0840,-81.0960,6.0,2.8,273.26,3.82,'1111122,1111122,1111122' 
COMPS,ioos:station:USF.COMPS:NFB:1,2014-10-01T14:00:00Z,25.0840,-81.0960,6.0,3.39,257.34,4.31,'1111122,1111122,1111122' 
COMPS,ioos:station:USF.COMPS:NFB:1,2014-10-01T14:06:00Z,25.0840,-81.0960,6.0,3.16,265.65,4.21,'1111122,1111122,1111122' 
COMPS,ioos:station:USF.COMPS:NFB:1,2014-10-01T14:12:00Z,25.0840,-81.0960,6.0,3.36,261.32,4.21,'1111122,1111122,1111122' 
COMPS,ioos:station:USF.COMPS:NFB:1,2014-10-01T14:18:00Z,25.0840,-81.0960,6.0,3.89,253.17,4.41,'1111122,1111122,1111122' 
COMPS,ioos:station:USF.COMPS:NFB:1,2014-10-01T14:24:00Z,25.0840,-81.0960,6.0,3.82,250.46,4.41,'1111122,1111122,1111122' 
COMPS,ioos:station:USF.COMPS:NFB:1,2014-10-01T14:30:00Z,25.0840,-81.0960,6.0,3.55,255.4,4.6,'1111122,1111122,1111122' 
COMPS,ioos:station:USF.COMPS:NFB:1,2014-10-01T14:36:00Z,25.0840,-81.0960,6.0,3.28,265.58,4.11,'1111122,1111122,1111122' 
COMPS,ioos:station:USF.COMPS:NFB:1,2014-10-01T14:42:00Z,25.0840,-81.0960,6.0,2.6,270.41,3.33,'1111122,1111122,1111122' 
COMPS,ioos:station:USF.COMPS:NFB:1,2014-10-01T14:48:00Z,25.0840,-81.0960,6.0,3.37,264.72,4.01,'1111122,1111122,1111122' 
COMPS,ioos:station:USF.COMPS:NFB:1,2014-10-01T14:54:00Z,25.0840,-81.0960,6.0,3.18,264.52,3.91,'1111122,1111122,1111122' 
COMPS,ioos:station:USF.COMPS:NFB:1,2014-10-01T15:00:00Z,25.0840,-81.0960,6.0,2.98,278.91,3.82,'1111122,1111122,1111122' 
COMPS,ioos:station:USF.COMPS:NFB:1,2014-10-01T15:06:00Z,25.0840,-81.0960,6.0,2.97,275.0,4.01,'1111122,1111122,1111122' 
COMPS,ioos:station:USF.COMPS:NFB:1,2014-10-01T15:12:00Z,25.0840,-81.0960,6.0,3.25,266.57,4.5,'1111122,1111122,1111122' 
COMPS,ioos:station:USF.COMPS:NFB:1,2014-10-01T15:18:00Z,25.0840,-81.0960,6.0,3.4,269.47,4.41,'1111122,1111122,1111122' 
COMPS,ioos:station:USF.COMPS:NFB:1,2014-10-01T15:24:00Z,25.0840,-81.0960,6.0,3.02,270.37,4.31,'1111122,1111122,1111122' 
COMPS,ioos:station:USF.COMPS:NFB:1,2014-10-01T15:30:00Z,25.0840,-81.0960,6.0,3.0,275.97,3.82,'1111122,1111122,1111122' 
COMPS,ioos:station:USF.COMPS:NFB:1,2014-10-01T15:36:00Z,25.0840,-81.0960,6.0,3.08,274.26,3.72,'1111122,1111122,1111122' 
COMPS,ioos:station:USF.COMPS:NFB:1,2014-10-01T15:42:00Z,25.0840,-81.0960,6.0,3.34,268.32,4.01,'1111122,1111122,1111122' 
COMPS,ioos:station:USF.COMPS:NFB:1,2014-10-01T15:48:00Z,25.0840,-81.0960,6.0,3.19,272.05,4.01,'1111122,1111122,1111122' 
COMPS,ioos:station:USF.COMPS:NFB:1,2014-10-01T15:54:00Z,25.0840,-81.0960,6.0,2.97,266.31,4.01,'1111122,1111122,1111122' 
COMPS,ioos:station:USF.COMPS:NFB:1,2014-10-01T16:00:00Z,25.0840,-81.0960,6.0,2.66,287.23,3.52,'1111122,1111122,1111122' 
COMPS,ioos:station:USF.COMPS:NFB:1,2014-10-01T16:06:00Z,25.0840,-81.0960,6.0,3.0,272.6,3.91,'1111122,1111122,1111122' 
COMPS,ioos:station:USF.COMPS:NFB:1,2014-10-01T16:12:00Z,25.0840,-81.0960,6.0,2.15,296.17,3.52,'1111122,1111122,1111122' 
COMPS,ioos:station:USF.COMPS:NFB:1,2014-10-01T16:18:00Z,25.0840,-81.0960,6.0,1.71,300.35,3.03,'1111122,1111122,1111122' 
COMPS,ioos:station:USF.COMPS:NFB:1,2014-10-01T16:24:00Z,25.0840,-81.0960,6.0,2.53,292.72,3.42,'1111122,1111122,1111122' 
COMPS,ioos:station:USF.COMPS:NFB:1,2014-10-01T16:30:00Z,25.0840,-81.0960,6.0,2.52,266.07,3.33,'1111122,1111122,1111122' 
COMPS,ioos:station:USF.COMPS:NFB:1,2014-10-01T16:36:00Z,25.0840,-81.0960,6.0,2.13,285.91,3.03,'1111122,1111122,1111122' 
COMPS,ioos:station:USF.COMPS:NFB:1,2014-10-01T16:42:00Z,25.0840,-81.0960,6.0,1.11,315.95,2.25,'1111122,1111122,1111122' 
COMPS,ioos:station:USF.COMPS:NFB:1,2014-10-01T16:48:00Z,25.0840,-81.0960,6.0,1.51,306.78,2.54,'1111122,1111122,1111122' 
COMPS,ioos:station:USF.COMPS:NFB:1,2014-10-01T16:54:00Z,25.0840,-81.0960,6.0,1.25,321.15,2.74,'1111122,1111122,1111122' 
COMPS,ioos:station:USF.COMPS:NFB:1,2014-10-01T17:00:00Z,25.0840,-81.0960,6.0,2.18,304.84,3.42,'1111122,1111122,1111122' 
COMPS,ioos:station:USF.COMPS:NFB:1,2014-10-01T17:06:00Z,25.0840,-81.0960,6.0,3.04,272.81,4.11,'1111122,1111122,1111122' 
COMPS,ioos:station:USF.COMPS:NFB:1,2014-10-01T17:12:00Z,25.0840,-81.0960,6.0,2.86,275.57,3.52,'1111122,1111122,1111122' 
COMPS,ioos:station:USF.COMPS:NFB:1,2014-10-01T17:18:00Z,25.0840,-81.0960,6.0,2.87,277.78,3.72,'1111122,1111122,1111122' 
COMPS,ioos:station:USF.COMPS:NFB:1,2014-10-01T17:24:00Z,25.0840,-81.0960,6.0,2.7,277.34,3.42,'1111122,1111122,1111122' 
COMPS,ioos:station:USF.COMPS:NFB:1,2014-10-01T17:30:00Z,25.0840,-81.0960,6.0,2.83,274.37,3.33,'1111122,1111122,1111122' 
COMPS,ioos:station:USF.COMPS:NFB:1,2014-10-01T17:36:00Z,25.0840,-81.0960,6.0,2.76,281.95,3.23,'1111122,1111122,1111122' 
COMPS,ioos:station:USF.COMPS:NFB:1,2014-10-01T17:42:00Z,25.0840,-81.0960,6.0,2.9,279.5,3.62,'1111122,1111122,1111122' 
COMPS,ioos:station:USF.COMPS:NFB:1,2014-10-01T17:48:00Z,25.0840,-81.0960,6.0,3.02,271.14,3.72,'1111122,1111122,1111122' 
COMPS,ioos:station:USF.COMPS:NFB:1,2014-10-01T17:54:00Z,25.0840,-81.0960,6.0,2.6,281.65,3.72,'1111122,1111122,1111122' 
COMPS,ioos:station:USF.COMPS:NFB:1,2014-10-01T18:00:00Z,25.0840,-81.0960,6.0,2.76,281.06,3.33,'1111122,1111122,1111122' 
COMPS,ioos:station:USF.COMPS:NFB:1,2014-10-01T18:06:00Z,25.0840,-81.0960,6.0,2.61,280.95,3.33,'1111122,1111122,1111122' 
COMPS,ioos:station:USF.COMPS:NFB:1,2014-10-01T18:12:00Z,25.0840,-81.0960,6.0,2.15,287.07,3.33,'1111122,1111122,1111122' 
COMPS,ioos:station:USF.COMPS:NFB:1,2014-10-01T18:18:00Z,25.0840,-81.0960,6.0,2.23,293.92,3.03,'1111122,1111122,1111122' 
COMPS,ioos:station:USF.COMPS:NFB:1,2014-10-01T18:24:00Z,25.0840,-81.0960,6.0,2.49,286.76,3.13,'1111122,1111122,1111122' 
COMPS,ioos:station:USF.COMPS:NFB:1,2014-10-01T18:30:00Z,25.0840,-81.0960,6.0,2.61,281.53,3.42,'1111122,1111122,1111122' 
COMPS,ioos:station:USF.COMPS:NFB:1,2014-10-01T18:36:00Z,25.0840,-81.0960,6.0,3.32,276.14,3.82,'1111122,1111122,1111122' 
COMPS,ioos:station:USF.COMPS:NFB:1,2014-10-01T18:42:00Z,25.0840,-81.0960,6.0,3.29,290.43,4.01,'1111122,1111122,1111122' 
COMPS,ioos:station:USF.COMPS:NFB:1,2014-10-01T18:48:00Z,25.0840,-81.0960,6.0,3.26,291.28,3.82,'1111122,1111122,1111122' 
COMPS,ioos:station:USF.COMPS:NFB:1,2014-10-01T18:54:00Z,25.0840,-81.0960,6.0,3.43,280.91,3.91,'1111122,1111122,1111122' 
COMPS,ioos:station:USF.COMPS:NFB:1,2014-10-01T19:00:00Z,25.0840,-81.0960,6.0,2.83,282.87,3.52,'1111122,1111122,1111122' 
COMPS,ioos:station:USF.COMPS:NFB:1,2014-10-01T19:06:00Z,25.0840,-81.0960,6.0,2.6,293.38,3.33,'1111122,1111122,1111122' 
COMPS,ioos:station:USF.COMPS:NFB:1,2014-10-01T19:12:00Z,25.0840,-81.0960,6.0,3.07,286.41,3.62,'1111122,1111122,1111122' 
COMPS,ioos:station:USF.COMPS:NFB:1,2014-10-01T19:18:00Z,25.0840,-81.0960,6.0,3.3,278.23,3.91,'1111122,1111122,1111122' 
COMPS,ioos:station:USF.COMPS:NFB:1,2014-10-01T19:24:00Z,25.0840,-81.0960,6.0,3.28,286.42,4.11,'1111122,1111122,1111122' 
COMPS,ioos:station:USF.COMPS:NFB:1,2014-10-01T19:30:00Z,25.0840,-81.0960,6.0,3.38,288.58,4.41,'1111122,1111122,1111122' 
COMPS,ioos:station:USF.COMPS:NFB:1,2014-10-01T19:36:00Z,25.0840,-81.0960,6.0,3.42,282.92,4.41,'1111122,1111122,1111122' 
COMPS,ioos:station:USF.COMPS:NFB:1,2014-10-01T19:42:00Z,25.0840,-81.0960,6.0,3.41,288.14,4.21,'1111122,1111122,1111122' 